| time (UTC) | temp F | wind direction | speed MPH | gust MPH | rain 1hr in | rain 24hr in | rain mn in | humidity % | barometer mb |
| 20260507010203 | 44 | 275 | 1.0 | 3.0 | 0.00 | 0.63 | 0.48 | 99 | 1016.2 |
| 20260507005703 | 44 | 295 | 2.0 | 3.0 | 0.00 | 0.63 | 0.48 | 99 | 1016.2 |
| 20260507004703 | 44 | 267 | 2.0 | 5.0 | 0.00 | 0.63 | 0.48 | 99 | 1015.9 |
| 20260507004203 | 44 | 237 | 0.0 | 7.0 | 0.00 | 0.63 | 0.48 | 99 | 1015.9 |
| 20260507003703 | 44 | 301 | 2.0 | 6.0 | 0.00 | 0.63 | 0.48 | 99 | 1016.1 |
| 20260507003203 | 44 | 310 | 4.0 | 7.0 | 0.00 | 0.63 | 0.48 | 99 | 1015.7 |
| 20260507002703 | 45 | 287 | 3.0 | 6.0 | 0.00 | 0.63 | 0.48 | 99 | 1015.9 |
| 20260507001703 | 45 | 268 | 3.0 | 6.0 | 0.00 | 0.65 | 0.48 | 99 | 1015.2 |
| 20260507001203 | 45 | 302 | 2.0 | 6.0 | 0.00 | 0.65 | 0.48 | 99 | 1015.2 |
| 20260507000703 | 45 | 272 | 2.0 | 3.0 | 0.00 | 0.65 | 0.48 | 99 | 1015.2 |
| 20260507000205 | 45 | 269 | 2.0 | 3.0 | 0.00 | 0.65 | 0.48 | 99 | 1015.0 |
| 20260506235704 | 45 | 255 | 1.0 | 2.0 | 0.00 | 0.65 | 0.48 | 99 | 1014.7 |
| 20260506235203 | 45 | 246 | 0.0 | 2.0 | 0.00 | 0.65 | 0.48 | 99 | 1014.5 |
| 20260506234703 | 45 | 273 | 1.0 | 2.0 | 0.00 | 0.65 | 0.48 | 99 | 1014.5 |
| 20260506234204 | 45 | 270 | 1.0 | 2.0 | 0.00 | 0.65 | 0.48 | 99 | 1014.5 |
| 20260506233703 | 45 | 279 | 1.0 | 5.0 | 0.00 | 0.65 | 0.48 | 99 | 1014.5 |
| 20260506233203 | 45 | 319 | 3.0 | 6.0 | 0.00 | 0.65 | 0.48 | 99 | 1014.9 |
| 20260506232704 | 46 | 337 | 2.0 | 5.0 | 0.00 | 0.65 | 0.48 | 99 | 1014.5 |
| 20260506232203 | 46 | 316 | 3.0 | 8.0 | 0.00 | 0.65 | 0.48 | 99 | 1014.5 |
| 20260506231704 | 46 | 315 | 3.0 | 7.0 | 0.00 | 0.65 | 0.48 | 99 | 1014.5 |
| 20260506231204 | 46 | 308 | 2.0 | 8.0 | 0.00 | 0.65 | 0.48 | 99 | 1014.5 |
| 20260506230704 | 46 | 283 | 2.0 | 5.0 | 0.00 | 0.65 | 0.48 | 99 | 1014.5 |
| 20260506230203 | 46 | 347 | 2.0 | 7.0 | 0.00 | 0.65 | 0.48 | 99 | 1014.5 |
| 20260506225703 | 46 | 312 | 4.0 | 8.0 | 0.00 | 0.65 | 0.48 | 99 | 1014.7 |
| 20260506225204 | 46 | 323 | 2.0 | 7.0 | 0.00 | 0.65 | 0.48 | 99 | 1014.5 |
| 20260506224204 | 46 | 347 | 3.0 | 8.0 | 0.00 | 0.65 | 0.48 | 99 | 1014.5 |
| 20260506223703 | 46 | 300 | 4.0 | 12.0 | 0.00 | 0.65 | 0.48 | 99 | 1014.5 |
| 20260506223203 | 46 | 317 | 6.0 | 12.0 | 0.00 | 0.65 | 0.48 | 99 | 1014.3 |
| 20260506222203 | 46 | 307 | 6.0 | 12.0 | 0.00 | 0.65 | 0.48 | 99 | 1014.5 |
| 20260506221703 | 46 | 286 | 5.0 | 9.0 | 0.00 | 0.65 | 0.48 | 99 | 1014.3 |
| 20260506221203 | 46 | 328 | 5.0 | 8.0 | 0.00 | 0.65 | 0.48 | 99 | 1014.2 |
| 20260506220704 | 46 | 319 | 6.0 | 10.0 | 0.00 | 0.65 | 0.48 | 99 | 1014.4 |
| 20260506220204 | 47 | 278 | 2.0 | 7.0 | 0.00 | 0.65 | 0.48 | 99 | 1014.1 |
| 20260506215204 | 47 | 294 | 3.0 | 12.0 | 0.00 | 0.65 | 0.48 | 99 | 1013.9 |
| 20260506214704 | 47 | 301 | 5.0 | 9.0 | 0.00 | 0.65 | 0.48 | 99 | 1013.9 |
| 20260506214203 | 47 | 350 | 3.0 | 12.0 | 0.00 | 0.65 | 0.48 | 99 | 1013.9 |
| 20260506213704 | 47 | 308 | 3.0 | 8.0 | 0.01 | 0.65 | 0.48 | 99 | 1013.9 |
| 20260506213203 | 47 | 330 | 4.0 | 10.0 | 0.01 | 0.65 | 0.48 | 99 | 1013.9 |
| 20260506212703 | 47 | 292 | 4.0 | 12.0 | 0.01 | 0.65 | 0.48 | 99 | 1013.9 |
| 20260506211702 | 47 | 317 | 3.0 | 10.0 | 0.02 | 0.65 | 0.48 | 99 | 1013.5 |
| 20260506211202 | 47 | 330 | 5.0 | 8.0 | 0.02 | 0.65 | 0.48 | 99 | 1013.5 |
| 20260506210703 | 47 | 303 | 3.0 | 7.0 | 0.03 | 0.65 | 0.48 | 99 | 1013.4 |
| 20260506210203 | 47 | 310 | 3.0 | 8.0 | 0.03 | 0.65 | 0.48 | 99 | 1013.5 |
| 20260506205702 | 47 | 309 | 5.0 | 8.0 | 0.03 | 0.65 | 0.48 | 99 | 1013.3 |
| 20260506205202 | 47 | 306 | 5.0 | 10.0 | 0.03 | 0.65 | 0.48 | 99 | 1013.2 |
| 20260506204203 | 47 | 301 | 5.0 | 8.0 | 0.04 | 0.65 | 0.48 | 99 | 1013.2 |
| 20260506203202 | 47 | 298 | 3.0 | 8.0 | 0.03 | 0.64 | 0.47 | 99 | 1012.8 |
| 20260506202703 | 47 | 311 | 5.0 | 8.0 | 0.04 | 0.64 | 0.47 | 99 | 1013.2 |
| 20260506202203 | 47 | 340 | 4.0 | 9.0 | 0.03 | 0.63 | 0.46 | 99 | 1013.0 |
| 20260506201702 | 47 | 314 | 3.0 | 12.0 | 0.04 | 0.63 | 0.46 | 99 | 1012.8 |
| 20260506200703 | 47 | 302 | 5.0 | 9.0 | 0.04 | 0.62 | 0.45 | 99 | 1012.8 |
| 20260506200202 | 47 | 313 | 4.0 | 9.0 | 0.04 | 0.62 | 0.45 | 99 | 1012.8 |
| 20260506195703 | 48 | 293 | 3.0 | 10.0 | 0.04 | 0.62 | 0.45 | 99 | 1012.8 |
| 20260506195203 | 48 | 285 | 4.0 | 9.0 | 0.04 | 0.62 | 0.45 | 99 | 1012.8 |
| 20260506194703 | 48 | 283 | 3.0 | 9.0 | 0.03 | 0.61 | 0.44 | 99 | 1012.8 |
| 20260506194203 | 47 | 309 | 4.0 | 7.0 | 0.03 | 0.61 | 0.44 | 99 | 1012.8 |
| 20260506193702 | 48 | 299 | 2.0 | 7.0 | 0.03 | 0.61 | 0.44 | 99 | 1012.8 |
| 20260506192703 | 48 | 276 | 2.0 | 7.0 | 0.02 | 0.60 | 0.43 | 99 | 1012.8 |
| 20260506192202 | 48 | 300 | 3.0 | 7.0 | 0.02 | 0.61 | 0.43 | 99 | 1012.8 |
| 20260506191202 | 48 | 326 | 3.0 | 7.0 | 0.01 | 0.62 | 0.41 | 99 | 1012.8 |
| 20260506190703 | 48 | 327 | 3.0 | 8.0 | 0.02 | 0.62 | 0.41 | 99 | 1012.8 |
| 20260506190203 | 47 | 316 | 3.0 | 7.0 | 0.02 | 0.62 | 0.41 | 99 | 1012.6 |
| 20260506185203 | 47 | 317 | 3.0 | 7.0 | 0.03 | 0.62 | 0.41 | 99 | 1012.5 |
| 20260506184703 | 47 | 288 | 4.0 | 7.0 | 0.04 | 0.62 | 0.41 | 99 | 1012.8 |
| 20260506184203 | 48 | 271 | 2.0 | 5.0 | 0.04 | 0.62 | 0.41 | 99 | 1012.5 |
| 20260506183704 | 47 | 317 | 2.0 | 6.0 | 0.04 | 0.62 | 0.41 | 99 | 1012.5 |
| 20260506183203 | 47 | 311 | 3.0 | 7.0 | 0.05 | 0.62 | 0.41 | 99 | 1012.5 |
| 20260506181703 | 47 | 323 | 2.0 | 6.0 | 0.04 | 0.61 | 0.40 | 99 | 1012.2 |
| 20260506180703 | 47 | 329 | 2.0 | 7.0 | 0.04 | 0.60 | 0.39 | 99 | 1012.5 |
| 20260506180203 | 46 | 316 | 4.0 | 7.0 | 0.04 | 0.60 | 0.39 | 99 | 1012.2 |
| 20260506175703 | 46 | 320 | 3.0 | 6.0 | 0.03 | 0.59 | 0.38 | 99 | 1012.4 |
| 20260506175203 | 46 | 298 | 3.0 | 6.0 | 0.03 | 0.59 | 0.38 | 99 | 1012.3 |
| 20260506173703 | 46 | 316 | 3.0 | 6.0 | 0.02 | 0.58 | 0.37 | 99 | 1012.3 |
| 20260506173204 | 46 | 294 | 4.0 | 7.0 | 0.01 | 0.57 | 0.36 | 99 | 1012.2 |
| 20260506172703 | 46 | 316 | 2.0 | 6.0 | 0.01 | 0.57 | 0.36 | 99 | 1012.2 |
| 20260506172203 | 46 | 313 | 3.0 | 6.0 | 0.01 | 0.57 | 0.36 | 99 | 1012.2 |
| 20260506171703 | 46 | 316 | 3.0 | 6.0 | 0.01 | 0.57 | 0.36 | 99 | 1012.2 |
| 20260506171203 | 46 | 307 | 3.0 | 5.0 | 0.01 | 0.57 | 0.36 | 99 | 1012.2 |
| 20260506170703 | 46 | 327 | 3.0 | 6.0 | 0.00 | 0.56 | 0.35 | 99 | 1012.2 |
| 20260506170203 | 46 | 319 | 3.0 | 5.0 | 0.00 | 0.56 | 0.35 | 99 | 1012.2 |
| 20260506165704 | 45 | 293 | 3.0 | 6.0 | 0.01 | 0.56 | 0.35 | 99 | 1012.2 |
| 20260506165203 | 45 | 336 | 2.0 | 7.0 | 0.01 | 0.56 | 0.35 | 99 | 1012.2 |
| 20260506163703 | 45 | 321 | 2.0 | 5.0 | 0.01 | 0.56 | 0.35 | 99 | 1012.5 |
| 20260506163203 | 45 | 320 | 3.0 | 6.0 | 0.01 | 0.56 | 0.35 | 99 | 1012.5 |
| 20260506162703 | 45 | 296 | 2.0 | 3.0 | 0.01 | 0.56 | 0.35 | 99 | 1012.5 |
| 20260506162204 | 45 | 305 | 2.0 | 3.0 | 0.01 | 0.56 | 0.35 | 99 | 1012.5 |
| 20260506161703 | 45 | 315 | 3.0 | 6.0 | 0.02 | 0.56 | 0.35 | 99 | 1012.5 |
| 20260506160703 | 45 | 278 | 2.0 | 3.0 | 0.03 | 0.56 | 0.35 | 99 | 1012.5 |
| 20260506160203 | 45 | 305 | 2.0 | 5.0 | 0.04 | 0.56 | 0.35 | 99 | 1012.5 |
| 20260506155203 | 45 | 306 | 2.0 | 8.0 | 0.05 | 0.55 | 0.34 | 99 | 1012.5 |
| 20260506154704 | 45 | 324 | 3.0 | 6.0 | 0.06 | 0.55 | 0.34 | 99 | 1012.8 |
| 20260506154203 | 45 | 336 | 2.0 | 3.0 | 0.06 | 0.55 | 0.34 | 99 | 1012.5 |
| 20260506153703 | 45 | 3 | 3.0 | 6.0 | 0.07 | 0.55 | 0.34 | 99 | 1012.6 |
| 20260506153203 | 44 | 37 | 2.0 | 5.0 | 0.07 | 0.55 | 0.34 | 99 | 1012.5 |
| 20260506152703 | 45 | 30 | 3.0 | 6.0 | 0.08 | 0.55 | 0.34 | 99 | 1012.2 |
| 20260506152204 | 44 | 334 | 2.0 | 5.0 | 0.08 | 0.55 | 0.34 | 99 | 1012.2 |
| 20260506151704 | 44 | 303 | 2.0 | 3.0 | 0.07 | 0.54 | 0.33 | 99 | 1012.5 |
| 20260506151203 | 44 | 345 | 2.0 | 5.0 | 0.08 | 0.54 | 0.33 | 99 | 1012.2 |
| 20260506150204 | 45 | 296 | 3.0 | 5.0 | 0.07 | 0.52 | 0.31 | 99 | 1012.5 |
| 20260506145703 | 45 | 335 | 2.0 | 3.0 | 0.06 | 0.51 | 0.30 | 99 | 1012.5 |
| 20260506145203 | 45 | 322 | 3.0 | 5.0 | 0.06 | 0.50 | 0.29 | 99 | 1012.5 |
| 20260506144704 | 45 | 286 | 1.0 | 3.0 | 0.06 | 0.49 | 0.28 | 99 | 1012.5 |
| 20260506144203 | 45 | 246 | 2.0 | 3.0 | 0.07 | 0.49 | 0.28 | 99 | 1012.5 |
| 20260506143703 | 44 | 288 | 2.0 | 3.0 | 0.08 | 0.48 | 0.27 | 99 | 1012.4 |
| 20260506143204 | 44 | 322 | 2.0 | 3.0 | 0.09 | 0.48 | 0.27 | 99 | 1012.3 |
| 20260506142203 | 44 | 342 | 4.0 | 7.0 | 0.11 | 0.47 | 0.26 | 99 | 1012.5 |
| 20260506141704 | 44 | 338 | 5.0 | 7.0 | 0.11 | 0.47 | 0.26 | 99 | 1012.4 |
| 20260506140703 | 44 | 353 | 3.0 | 6.0 | 0.12 | 0.46 | 0.25 | 99 | 1012.5 |
| 20260506140203 | 44 | 321 | 3.0 | 5.0 | 0.12 | 0.45 | 0.24 | 99 | 1012.5 |
| 20260506135703 | 44 | 341 | 3.0 | 6.0 | 0.13 | 0.45 | 0.24 | 99 | 1012.3 |
| 20260506135203 | 44 | 323 | 2.0 | 5.0 | 0.12 | 0.44 | 0.23 | 99 | 1012.5 |
| 20260506134703 | 45 | 334 | 3.0 | 6.0 | 0.12 | 0.43 | 0.22 | 99 | 1012.6 |
| 20260506134204 | 45 | 321 | 4.0 | 8.0 | 0.11 | 0.42 | 0.21 | 99 | 1012.8 |
| 20260506133704 | 45 | 312 | 3.0 | 5.0 | 0.10 | 0.40 | 0.19 | 99 | 1012.5 |
| 20260506133203 | 45 | 333 | 3.0 | 6.0 | 0.10 | 0.39 | 0.18 | 99 | 1012.4 |
| 20260506132204 | 45 | 353 | 3.0 | 6.0 | 0.08 | 0.36 | 0.15 | 99 | 1012.3 |
| 20260506131704 | 45 | 335 | 3.0 | 6.0 | 0.08 | 0.36 | 0.15 | 99 | 1012.2 |
| 20260506131203 | 45 | 297 | 3.0 | 6.0 | 0.07 | 0.34 | 0.13 | 99 | 1012.2 |
| 20260506130703 | 45 | 337 | 2.0 | 6.0 | 0.07 | 0.34 | 0.13 | 99 | 1012.2 |
| 20260506130203 | 45 | 355 | 4.0 | 6.0 | 0.06 | 0.33 | 0.12 | 99 | 1012.2 |
| 20260506125704 | 45 | 2 | 2.0 | 5.0 | 0.05 | 0.32 | 0.11 | 99 | 1012.2 |
| 20260506125204 | 45 | 352 | 3.0 | 6.0 | 0.06 | 0.32 | 0.11 | 99 | 1012.2 |
| 20260506124703 | 45 | 343 | 3.0 | 6.0 | 0.05 | 0.31 | 0.10 | 99 | 1012.2 |
| 20260506124203 | 45 | 344 | 2.0 | 5.0 | 0.06 | 0.31 | 0.10 | 99 | 1012.3 |
| 20260506123704 | 45 | 330 | 3.0 | 6.0 | 0.05 | 0.30 | 0.09 | 99 | 1012.2 |
| 20260506123204 | 45 | 292 | 3.0 | 5.0 | 0.04 | 0.29 | 0.08 | 99 | 1012.2 |
| 20260506122703 | 45 | 326 | 3.0 | 5.0 | 0.05 | 0.29 | 0.08 | 99 | 1012.2 |
| 20260506122203 | 45 | 313 | 3.0 | 6.0 | 0.05 | 0.28 | 0.07 | 99 | 1012.2 |
| 20260506121704 | 45 | 272 | 2.0 | 5.0 | 0.05 | 0.28 | 0.07 | 99 | 1012.3 |
| 20260506120702 | 45 | 277 | 2.0 | 3.0 | 0.06 | 0.27 | 0.06 | 99 | 1012.3 |
| 20260506120202 | 45 | 250 | 3.0 | 6.0 | 0.06 | 0.27 | 0.06 | 99 | 1012.8 |
| 20260506115702 | 45 | 92 | 2.0 | 5.0 | 0.07 | 0.27 | 0.06 | 99 | 1011.8 |
| 20260506115202 | 45 | 262 | 3.0 | 5.0 | 0.06 | 0.26 | 0.05 | 99 | 1012.5 |
| 20260506114703 | 45 | 127 | 2.0 | 3.0 | 0.06 | 0.26 | 0.05 | 99 | 1012.4 |
| 20260506114202 | 45 | 286 | 2.0 | 3.0 | 0.06 | 0.25 | 0.04 | 99 | 1012.3 |
| 20260506113703 | 45 | 225 | 0.0 | 3.0 | 0.06 | 0.25 | 0.04 | 99 | 1012.4 |
| 20260506113203 | 45 | 267 | 1.0 | 2.0 | 0.06 | 0.25 | 0.04 | 99 | 1012.5 |
| 20260506112703 | 45 | 301 | 1.0 | 3.0 | 0.05 | 0.24 | 0.03 | 99 | 1012.8 |
| 20260506111703 | 45 | 284 | 1.0 | 2.0 | 0.05 | 0.23 | 0.02 | 98 | 1012.5 |
| 20260506111203 | 45 | 303 | 2.0 | 2.0 | 0.04 | 0.22 | 0.01 | 97 | 1012.5 |
| 20260506110703 | 45 | 12 | 1.0 | 3.0 | 0.03 | 0.21 | 0.00 | 97 | 1012.5 |
| 20260506110202 | 45 | 22 | 1.0 | 2.0 | 0.03 | 0.21 | 0.00 | 97 | 1012.4 |
| 20260506105703 | 45 | 33 | 1.0 | 2.0 | 0.02 | 0.20 | 0.20 | 97 | 1012.7 |
| 20260506105203 | 44 | 73 | 1.0 | 5.0 | 0.02 | 0.20 | 0.20 | 97 | 1012.5 |
| 20260506104702 | 45 | 43 | 1.0 | 3.0 | 0.03 | 0.20 | 0.20 | 97 | 1012.3 |
| 20260506104203 | 45 | 125 | 2.0 | 3.0 | 0.02 | 0.19 | 0.19 | 97 | 1012.7 |
| 20260506103703 | 45 | 28 | 2.0 | 3.0 | 0.02 | 0.19 | 0.19 | 97 | 1012.8 |
| 20260506103202 | 45 | 320 | 1.0 | 3.0 | 0.02 | 0.19 | 0.19 | 98 | 1012.8 |
| 20260506102703 | 44 | 37 | 3.0 | 6.0 | 0.02 | 0.19 | 0.19 | 98 | 1012.8 |
| 20260506101203 | 45 | 316 | 2.0 | 5.0 | 0.02 | 0.18 | 0.18 | 99 | 1013.2 |
| 20260506100702 | 45 | 317 | 3.0 | 5.0 | 0.02 | 0.18 | 0.18 | 98 | 1012.8 |
| 20260506100203 | 45 | 318 | 2.0 | 5.0 | 0.03 | 0.18 | 0.18 | 98 | 1012.6 |
| 20260506095703 | 45 | 337 | 2.0 | 5.0 | 0.03 | 0.18 | 0.18 | 97 | 1012.5 |
| 20260506095203 | 45 | 311 | 1.0 | 6.0 | 0.03 | 0.18 | 0.18 | 97 | 1012.2 |
| 20260506094703 | 45 | 346 | 2.0 | 5.0 | 0.02 | 0.17 | 0.17 | 97 | 1012.2 |
| 20260506094203 | 45 | 84 | 4.0 | 7.0 | 0.02 | 0.17 | 0.17 | 98 | 1012.2 |
| 20260506093703 | 45 | 24 | 3.0 | 6.0 | 0.02 | 0.17 | 0.17 | 98 | 1012.8 |
| 20260506093203 | 45 | 40 | 5.0 | 8.0 | 0.03 | 0.17 | 0.17 | 99 | 1012.8 |
| 20260506092703 | 46 | 0 | 2.0 | 6.0 | 0.04 | 0.17 | 0.17 | 99 | 1012.8 |
| 20260506092203 | 46 | 3 | 4.0 | 8.0 | 0.04 | 0.17 | 0.17 | 99 | 1012.8 |
| 20260506091703 | 46 | 125 | 3.0 | 8.0 | 0.03 | 0.16 | 0.16 | 99 | 1012.7 |
| 20260506091203 | 46 | 45 | 2.0 | 6.0 | 0.03 | 0.16 | 0.16 | 99 | 1013.0 |
| 20260506090703 | 46 | 4 | 2.0 | 5.0 | 0.03 | 0.16 | 0.16 | 99 | 1012.6 |
| 20260506090203 | 46 | 285 | 2.0 | 6.0 | 0.02 | 0.15 | 0.15 | 99 | 1013.0 |
| 20260506085703 | 46 | 39 | 2.0 | 6.0 | 0.02 | 0.15 | 0.15 | 99 | 1012.6 |
| 20260506084703 | 46 | 0 | 2.0 | 8.0 | 0.02 | 0.15 | 0.15 | 99 | 1012.8 |
| 20260506084203 | 46 | 358 | 5.0 | 13.0 | 0.02 | 0.15 | 0.15 | 99 | 1012.8 |
| 20260506082703 | 48 | 308 | 0.0 | 3.0 | 0.00 | 0.13 | 0.13 | 99 | 1012.8 |
| 20260506082202 | 48 | 295 | 3.0 | 5.0 | 0.00 | 0.13 | 0.13 | 99 | 1012.8 |
| 20260506081703 | 48 | 323 | 1.0 | 2.0 | 0.00 | 0.13 | 0.13 | 99 | 1012.5 |
| 20260506081203 | 48 | 240 | 1.0 | 3.0 | 0.00 | 0.13 | 0.13 | 99 | 1012.5 |
| 20260506080203 | 48 | 316 | 1.0 | 2.0 | 0.01 | 0.13 | 0.13 | 99 | 1012.8 |
| 20260506073203 | 48 | 210 | 1.0 | 2.0 | 0.01 | 0.13 | 0.13 | 99 | 1012.8 |
| 20260506072703 | 48 | 209 | 2.0 | 3.0 | 0.01 | 0.13 | 0.13 | 99 | 1012.5 |
| 20260506072203 | 48 | 285 | 2.0 | 5.0 | 0.01 | 0.13 | 0.13 | 99 | 1012.5 |
| 20260506071703 | 48 | 176 | 2.0 | 3.0 | 0.01 | 0.13 | 0.13 | 99 | 1012.5 |
| 20260506070703 | 48 | 153 | 2.0 | 7.0 | 0.01 | 0.13 | 0.13 | 99 | 1013.2 |
| 20260506070204 | 48 | 162 | 5.0 | 7.0 | 0.00 | 0.12 | 0.12 | 99 | 1012.5 |
| 20260506062203 | 48 | 238 | 1.0 | 3.0 | 0.00 | 0.12 | 0.12 | 99 | 1013.2 |
| 20260506061703 | 48 | 246 | 2.0 | 3.0 | 0.00 | 0.12 | 0.12 | 99 | 1013.2 |
| 20260506061203 | 48 | 146 | 2.0 | 3.0 | 0.00 | 0.12 | 0.12 | 99 | 1013.2 |
| 20260506060703 | 48 | 310 | 2.0 | 3.0 | 0.00 | 0.12 | 0.12 | 99 | 1013.7 |
| 20260506060203 | 48 | 294 | 2.0 | 3.0 | 0.00 | 0.12 | 0.12 | 99 | 1013.5 |
| 20260506051203 | 48 | 255 | 2.0 | 3.0 | 0.00 | 0.12 | 0.12 | 99 | 1013.9 |
| 20260506050203 | 48 | 346 | 1.0 | 3.0 | 0.00 | 0.12 | 0.12 | 99 | 1013.5 |
| 20260506044703 | 48 | 356 | 2.0 | 2.0 | 0.01 | 0.12 | 0.12 | 99 | 1013.5 |
| 20260506043703 | 48 | 310 | 2.0 | 3.0 | 0.01 | 0.12 | 0.12 | 99 | 1014.2 |
| 20260506043204 | 48 | 284 | 2.0 | 3.0 | 0.01 | 0.12 | 0.12 | 99 | 1014.0 |
| 20260506042704 | 48 | 324 | 2.0 | 3.0 | 0.01 | 0.12 | 0.12 | 99 | 1013.9 |
| 20260506042203 | 48 | 283 | 1.0 | 3.0 | 0.01 | 0.12 | 0.12 | 99 | 1014.0 |
| 20260506041703 | 49 | 254 | 2.0 | 5.0 | 0.01 | 0.12 | 0.12 | 99 | 1014.4 |
| 20260506041203 | 49 | 242 | 2.0 | 3.0 | 0.02 | 0.12 | 0.12 | 99 | 1014.3 |
| 20260506040703 | 49 | 320 | 3.0 | 3.0 | 0.02 | 0.12 | 0.12 | 99 | 1014.2 |
| 20260506040204 | 49 | 336 | 0.0 | 2.0 | 0.03 | 0.12 | 0.12 | 99 | 1014.5 |
| 20260506035703 | 49 | 343 | 2.0 | 5.0 | 0.04 | 0.12 | 0.12 | 99 | 1014.3 |
| 20260506035204 | 49 | 329 | 3.0 | 5.0 | 0.05 | 0.12 | 0.12 | 99 | 1014.2 |
| 20260506034204 | 49 | 310 | 2.0 | 8.0 | 0.04 | 0.11 | 0.11 | 99 | 1014.3 |
| 20260506033204 | 49 | 350 | 3.0 | 6.0 | 0.04 | 0.11 | 0.11 | 99 | 1014.4 |
| 20260506032703 | 49 | 295 | 3.0 | 6.0 | 0.04 | 0.11 | 0.11 | 99 | 1014.1 |
| 20260506032204 | 49 | 313 | 2.0 | 3.0 | 0.04 | 0.11 | 0.11 | 99 | 1014.2 |
| 20260506031704 | 49 | 244 | 1.0 | 3.0 | 0.04 | 0.11 | 0.11 | 98 | 1014.2 |
| 20260506031204 | 49 | 215 | 2.0 | 3.0 | 0.03 | 0.10 | 0.10 | 98 | 1014.5 |
| 20260506030703 | 49 | 78 | 1.0 | 5.0 | 0.03 | 0.10 | 0.10 | 98 | 1013.9 |
| 20260506030203 | 49 | 307 | 3.0 | 6.0 | 0.02 | 0.09 | 0.09 | 97 | 1014.3 |
| 20260506025702 | 50 | 268 | 4.0 | 7.0 | 0.01 | 0.08 | 0.08 | 97 | 1014.5 |
| 20260506025203 | 50 | 314 | 2.0 | 5.0 | 0.01 | 0.07 | 0.07 | 96 | 1014.2 |
| 20260506024703 | 50 | 224 | 2.0 | 6.0 | 0.01 | 0.07 | 0.07 | 95 | 1014.5 |
| 20260506024202 | 50 | 219 | 4.0 | 7.0 | 0.01 | 0.07 | 0.07 | 95 | 1014.5 |
| 20260506023703 | 50 | 244 | 4.0 | 6.0 | 0.01 | 0.07 | 0.07 | 95 | 1014.3 |
| 20260506022703 | 50 | 346 | 2.0 | 5.0 | 0.01 | 0.07 | 0.07 | 94 | 1013.3 |
| 20260506020702 | 51 | 297 | 3.0 | 6.0 | 0.01 | 0.07 | 0.07 | 91 | 1013.5 |
| 20260506015203 | 52 | 320 | 4.0 | 14.0 | 0.00 | 0.06 | 0.06 | 87 | 1013.3 |
| 20260506014703 | 53 | 333 | 7.0 | 13.0 | 0.00 | 0.06 | 0.06 | 84 | 1013.5 |
| 20260506014203 | 54 | 357 | 6.0 | 12.0 | 0.00 | 0.06 | 0.06 | 82 | 1013.4 |
| 20260506013703 | 55 | 304 | 4.0 | 10.0 | 0.00 | 0.06 | 0.06 | 82 | 1013.3 |
| 20260506012703 | 55 | 324 | 4.0 | 7.0 | 0.00 | 0.06 | 0.06 | 82 | 1013.0 |
| 20260506012203 | 55 | 286 | 1.0 | 5.0 | 0.01 | 0.06 | 0.06 | 82 | 1012.8 |
| 20260506011703 | 55 | 332 | 3.0 | 7.0 | 0.02 | 0.06 | 0.06 | 82 | 1012.8 |
| 20260506011203 | 55 | 7 | 4.0 | 7.0 | 0.02 | 0.06 | 0.06 | 83 | 1012.8 |
| 20260506010703 | 55 | 325 | 2.0 | 6.0 | 0.02 | 0.06 | 0.06 | 83 | 1012.8 |